Regional Weather Roundup
Issued by NWS Kansas City/Pleasant Hill, MO

Home | Current Version | Previous Version | Text Only | Print | Product List | Glossary On
Versions: 1 2 3 4 5 6 7 8 9 10 11 12 13 14 15 16 17 18 19 20 21 22 23 24 25 26 27 28 29 30 31 32 33 34 35 36 37 38 39 40 41 42 43 44 45 46 47 48 49 50
658
ASUS43 KEAX 120910
RWREAX

WEATHER ROUNDUP FOR EASTERN KANSAS AND NORTHWEST MISSOURI
NATIONAL WEATHER SERVICE KANSAS CITY/PLEASANT HILL MO
300 AM CST FRI FEB 12 2016

KSZ040-057-103>105-MOZ028-029-037-043-121000-
...KANSAS CITY METROPOLITAN AREA...

CITY           SKY/WX    TMP DP  RH WIND       PRES   REMARKS
K.C. INTL      CLOUDY    29  21  72 E7        30.19S WCI  22
K.C. DOWNTOWN  CLOUDY    31  21  66 E3        30.20S
LEES SUMMIT    CLOUDY    30  21  69 NE6       30.19R WCI  24
OLATHE - IXD   CLOUDY    29  24  82 N5        30.19S WCI  24
OLATHE - OJC   CLOUDY    30  21  69 NE6       30.18S WCI  24
LAWRENCE       CLOUDY    27  23  85 CALM      30.20S

$$

MOZ001>008-011>017-020>025-030>033-038>040-044>046-053-054-121000-
...NORTHERN AND CENTRAL MISSOURI...

CITY           SKY/WX    TMP DP  RH WIND       PRES   REMARKS
ST. JOSEPH     CLOUDY    29  20  69 NE3       30.23R
MOSBY          CLOUDY    30  21  69 NE3       30.21S
WARRENSBURG    CLOUDY    30  23  74 N3        30.20R
WHITEMAN AFB   CLOUDY    28  25  87 NE5       30.18R WCI  23
CLINTON          N/A     32  27  80 NE5       30.19R WCI  27
SEDALIA        CLOUDY    28  24  85 NE7       30.20R WCI  21
WARSAW         NOT AVBL
CHILLICOTHE      N/A     27  17  66 NE5       30.23S WCI  22
KIRKSVILLE     CLOUDY    21  16  81 CALM      30.21F

$$

MOZ041-047>049-056>058-063>065-088>090-097-121000-
...EASTERN AND SOUTHERN MISSOURI...

CITY           SKY/WX    TMP DP  RH WIND       PRES   REMARKS
ST. LOUIS INTL FLURRIES  25  21  86 NE5       30.22S WCI  19
SPIRIT OF STL  CLOUDY    25  21  85 NE5       30.21S WCI  19
COLUMBIA       CLOUDY    26  23  88 NE6       30.18F WCI  19
JEFFERSON CITY CLOUDY    27  23  85 E5        30.21S WCI  22
ROLLA          CLOUDY    27  22  81 N5        30.14R WCI  22
OSAGE BEACH    CLOUDY    30  18  59 NE5       30.17R WCI  25
SPRINGFIELD    PTCLDY    32  21  64 SW7       30.13R WCI  26
BRANSON        PTCLDY    32  21  64 CALM      30.14S
JOPLIN         CLEAR     30  23  75 S3        30.16S
WEST PLAINS    PTCLDY    31  20  63 S5        30.13F WCI  26

$$

IAZ060-094-KSZ022-034>040-054-083-096-NEZ052-066-093-121000-
...KANSAS...SOUTHEAST NEBRASKA AND IOWA...

CITY           SKY/WX    TMP DP  RH WIND       PRES   REMARKS
TOPEKA         CLEAR     29  21  72 W3        30.21R
MANHATTAN      CLEAR     24  22  91 CALM      30.22R
EMPORIA        CLEAR     27  22  81 NW9       30.18R WCI  18
CHANUTE        CLEAR     28  23  81 NW5       30.18R WCI  23
WICHITA        PTCLDY    32  25  75 W3        30.20R
OMAHA          CLOUDY    24  20  84 N9        30.27R WCI  14
LINCOLN        CLOUDY    29  25  85 N9        30.27R FOG     WCI  20
FALLS CITY     CLOUDY    28  22  78 NW3       30.23R
LAMONI         CLOUDY    21  18  88 CALM      30.20S
DES MOINES     CLOUDY    20  15  81 W5        30.22S WCI  13

$$





USA.gov is the U.S. government's official web portal to all federal, state and local government web resources and services.